Regional Weather Roundup
Issued by NWS

Home | Current Version | Previous Version | Graphics & Text | Print | Product List | Glossary On
Versions: 1 2 3 4 5 6 7 8 9 10 11 12 13 14 15 16 17 18 19 20 21 22 23 24 25 26 27 28 29 30 31 32 33 34 35 36 37 38 39 40 41 42 43 44 45 46 47 48 49 50
000
ASUS45 KBOU 260507
RWRCO

WEATHER ROUNDUP FOR COLORADO
NATIONAL WEATHER SERVICE DENVER/BOULDER CO
1000 PM MST TUE NOV 25 2014

NOTE: "FAIR" INDICATES FEW OR NO CLOUDS BELOW 12000 FEET WITH NO
SIGNIFICANT WEATHER AND/OR OBSTRUCTIONS TO VISIBILITY.

COZ001>005-013-030-031-260600-
...NORTHWEST COLORADO...

CITY           SKY/WX    TMP DP  RH WIND       PRES   REMARKS
CRAIG          CLOUDY    30  24  78 CALM      30.20S
HAYDEN         CLOUDY    27  23  86 E5        30.19R WCI  21
MEEKER         CLOUDY    34  24  67 N8        30.25R WCI  27
MOUNT WERNER   NOT AVBL
STEAMBOAT SPGS CLOUDY    31  28  88 NW3       30.19R
WALDEN         CLOUDY    30  23  74 W15G22    30.08R WCI  19
$$

COZ006>008-011-260600-
...WEST CENTRAL VALLEYS...

CITY           SKY/WX    TMP DP  RH WIND       PRES   REMARKS
GRAND JUNCTION CLOUDY    33  20  58 E3        30.31R
MONTROSE       CLOUDY    33  20  58 CALM      30.33S
EAGLE          CLOUDY    32  25  74 CALM      30.28F
RIFLE          CLOUDY    28  22  78 E3        30.30F
DELTA          CLOUDY    37  23  58 NE3       30.33R
NUCLA          CLOUDY    36  18  48 SE5       30.37R
$$

COZ017>023-064>068-260600-
...SOUTHWEST COLORADO...

CITY           SKY/WX    TMP DP  RH WIND       PRES   REMARKS
DURANGO        PTCLDY    35  20  54 SW8       30.27R WCI  29
CORTEZ         CLEAR     23  11  60 E5        30.35S WCI  17
PAGOSA SPRINGS PTCLDY    22  11  62 CALM      30.29S
TELLURIDE      NOT AVBL
WOLF CREEK PAS CLEAR     18  10  73 MISG      30.27S
$$

COZ009-010-012-014-032>034-037-058>063-260600-
...CENTRAL COLORADO...

CITY           SKY/WX    TMP DP  RH WIND       PRES   REMARKS
ASPEN          LGT SNOW  23  20  88 SW3       30.27R FOG
BUENA VISTA    CLOUDY    32  20  60 W37G52    30.10R WCI  16
COPPER MTN     CLOUDY    23  18  80 MISG      30.16R
BERTHOUD PASS  NOT AVBL
COTTONWOOD PAS LGT SNOW  30  19  64 NW22G44   30.10R WCI  17
GUNNISON       CLOUDY    25  19  80 CALM      30.33S
KREMMLING      CLOUDY    30  25  80 W23       30.16F WCI  17
LEADVILLE      LGT SNOW  22  18  85 NW13G25   30.18S FOG     WCI  10
MONARCH PASS   CLOUDY    18  14  86 MISG      30.30R
SALIDA         PTCLDY    38  19  46 W33G52    30.19S
SUNLIGHT       CLOUDY   N/A N/A N/A SW5       30.26S
WILKERSON PASS PTCLDY    23  18  80 NW18G37   30.12R WCI   9
$$

COZ069>075-260600-
...SAN LUIS VALLEY/SANGRE DE CRISTO MOUNTAINS...

CITY           SKY/WX    TMP DP  RH WIND       PRES   REMARKS
ALAMOSA        PTCLDY    14   6  70 SE5       30.22R WCI   6
LA VETA PASS   PTCLDY    21  12  68 SW14G25   30.12R WCI   8
SAGUACHE       NOT AVBL
$$

COZ035-036-038>040-260600-
...NORTHERN COLORADO FRONT RANGE...

CITY           SKY/WX    TMP DP  RH WIND       PRES   REMARKS
DENVER INTL AP FLURRIES  31  27  85 NE18      30.05R WCI  19
DMNS CITY PARK   N/A     32  28  82 E18G24    30.07R WCI  21
AURORA         CLOUDY    31  29  91 E21       30.07R WCI  18
FRONT RANGE AP FLURRIES  32  30  93 NE12G21   30.08R WCI  23
ERIE MUNI ARPT CLOUDY    33  29  85 E9G22     30.09R WCI  25
BOULDER MUN AP CLOUDY    34  32  93 NE3       30.10R
CENTENNIAL     MOCLDY    32  29  88 NE12      30.05R WCI  23
BROOMFIELD     NOT AVBL
FORT COLLINS   CLOUDY    34  25  69 NE13      30.07R WCI  25
LONGMONT       CLOUDY    35  30  81 E7G16     30.11R WCI  29
$$

COZ041-046-047-076>085-087-088-260600-
...PIKES PEAK/PALMER DIVIDE AND SOUTHERN FOOTHILLS...

CITY           SKY/WX    TMP DP  RH WIND       PRES   REMARKS
COLO. SPRINGS  PTCLDY    32  20  61 N12       30.01R WCI  23
A. F. ACADEMY  CLEAR     38  19  46 N12       30.00R
ELLICOTT       NOT AVBL
FALCON         NOT AVBL
FORT CARSON    CLEAR     34  19  55 SE9       29.98R WCI  26
LIMON          FLURRIES  31  27  85 N21G31    30.03R WCI  18
MONUMENT HILL  MOCLDY    28  27  93 NE13G18   30.05R WCI  18
TRINIDAD       CLEAR     40  21  46 W7        30.03R
$$

COZ042>045-048>051-090-091-260600-
...NORTHEAST COLORADO...

CITY           SKY/WX    TMP DP  RH WIND       PRES   REMARKS
GREELEY ARPT   CLOUDY    32  25  74 NE15      30.08R WCI  22
AKRON          LGT SNOW  31  30  96 N12       30.04S FOG     WCI  22
BURLINGTON     FLURRIES  37  30  75 N17       30.03R
WRAY           DRIZZLE   35  35 100 W9        30.05R WCI  28
STERLING       FLURRIES  36  34  93 NW12      30.04R
HOLYOKE        LGT RAIN  36  32  87 NW12G21   30.03R
FORT MORGAN    FLURRIES  32  29  91 N8        30.06R WCI  24
$$

COZ086-089-092>099-260600-
...SOUTHEAST COLORADO...

CITY           SKY/WX    TMP DP  RH WIND       PRES   REMARKS
PUEBLO         CLEAR     50  20  30 W21G35    29.96R
LA JUNTA       MOCLDY    37  24  59 W8        29.97R
LAMAR          MOCLDY    33  20  58 CALM      29.96R
SPRINGFIELD      N/A     38  20  48 W14       29.95R
$$


USA.gov is the U.S. government's official web portal to all federal, state and local government web resources and services.